Wetbulb
56.78 56.72 56.98 56.50 55.28 54.43 53.37 52.44 52.52 52.85 53.03 53.20 53.43 53.60 53.75 53.71 54.06 53.79 58.75 64.20 59.45 57.57 60.28 62.10 61.85 60.74 61.48 61.50 56.86 60.63 59.42 59.20 58.26 55.46 53.98 53.87 53.05 54.24 54.03 55.10 54.28 53.24 51.57 51.04 52.49 51.03 48.20 59.92 58.27 54.80 60.04 62.23 61.84 62.73
56.50 56.44 56.68 56.40 55.40 54.47 53.41 52.35 52.28 52.59 52.70 52.85 53.12 53.47 53.53 53.34 53.65 53.77 58.11 60.58 61.44 57.62 58.71 61.82 61.98 62.13 63.32 63.06 60.75 61.46 60.61 61.01 60.78 57.27 57.03 56.19 53.81 55.46 55.59 50.78 57.49 52.55 55.18 53.16 53.92 55.46 61.14 61.79 60.97 61.96 63.03 62.35 62.21 62.23
56.22 56.06 56.16 56.26 55.13 54.20 53.13 52.23 52.05 52.22 52.45 52.59 52.80 53.00 53.16 53.24 53.03 52.90 54.90 59.11 59.62 58.03 59.04 59.54 58.34 62.13 62.89 63.75 63.97 58.67 61.40 62.50 61.46 62.80 59.50 57.58 56.36 57.35 52.93 53.72 55.64 57.64 59.46 55.86 55.67 58.29 59.75 60.21 61.27 62.08 63.00 62.43 62.61 62.13
55.78 55.62 55.78 55.86 54.83 53.99 52.78 52.05 51.84 51.97 52.14 52.22 52.35 52.55 52.72 52.78 52.68 52.55 54.47 58.21 59.24 59.31 54.61 57.12 62.74 61.62 63.43 63.55 63.31 63.49 62.01 63.37 62.35 62.15 58.96 57.00 54.74 58.17 54.57 56.07 55.40 57.52 59.25 56.16 56.29 60.19 60.57 60.61 61.61 62.21 61.86 61.87 61.74 61.75
55.14 55.32 55.44 55.32 54.53 53.44 52.43 51.82 51.70 51.72 51.70 51.82 52.01 52.24 52.43 52.57 52.81 53.31 55.98 58.54 62.12 57.82 55.60 57.33 61.50 62.19 62.66 61.79 61.18 62.33 61.31 60.05 59.31 57.56 56.53 54.93 56.64 56.38 56.98 56.86 55.00 58.11 57.99 54.48 54.27 61.63 61.69 61.45 62.10 62.17 61.04 61.24 61.20 59.90
54.50 54.66 54.80 54.84 53.84 52.58 51.99 51.51 51.40 51.32 51.36 51.49 51.53 51.90 51.97 51.99 52.50 55.30 57.58 61.98 63.09 62.47 56.24 53.32 60.13 60.52 60.92 60.54 60.58 60.84 60.47 59.21 58.84 57.45 56.50 57.88 61.85 58.95 54.25 53.53 59.51 59.31 59.71 60.65 59.83 62.95 62.03 62.67 62.41 62.51 61.97 61.04 60.35 59.44
54.34 54.34 54.64 54.06 52.90 51.87 51.32 51.23 51.26 51.03 51.11 51.17 51.47 51.60 51.69 51.79 52.67 53.71 55.59 58.11 53.01 60.74 56.67 52.92 53.42 60.18 61.66 60.41 60.06 59.71 60.61 59.82 59.05 57.98 56.84 57.37 58.56 58.52 55.55 52.72 59.27 59.89 61.21 61.23 61.17 62.27 61.22 61.59 59.99 61.54 61.09 60.10 57.68 59.27
54.06 54.30 53.98 52.91 52.07 51.28 51.11 51.07 50.67 50.78 50.86 51.07 51.57 51.70 51.58 51.73 52.29 53.30 56.08 54.51 54.78 58.08 58.08 53.24 54.52 57.23 61.03 57.14 56.59 60.06 58.07 58.71 59.02 57.62 58.48 56.76 58.71 58.01 53.68 58.56 59.26 60.88 60.96 60.28 61.37 61.91 61.71 62.39 61.94 60.51 60.28 59.00 57.71 57.32
53.96 53.85 52.62 51.73 51.06 50.82 50.40 50.31 50.48 50.80 50.99 51.51 51.56 51.40 54.15 54.23 54.97 58.38 55.97 55.19 59.84 58.79 54.64 53.29 51.81 52.06 60.19 57.65 58.14 58.38 59.33 55.21 59.24 55.98 55.96 57.32 55.21 53.02 57.31 60.56 60.51 60.83 60.14 59.68 60.66 61.93 61.77 60.76 60.05 59.25 58.32 57.69 56.23 55.45
53.06 52.01 51.25 50.87 50.57 49.91 49.77 50.09 50.39 50.77 51.24 50.91 51.78 55.50 54.61 58.46 57.51 57.12 56.71 55.36 55.35 57.04 57.66 54.56 57.86 53.93 58.47 56.85 55.86 56.72 57.85 54.87 52.82 55.86 58.79 54.72 52.99 61.85 61.80 61.42 65.03 63.36 61.52 61.02 59.09 58.68 59.55 59.09 59.06 58.55 56.98 56.43 54.94 54.34
51.06 50.61 50.35 50.29 49.74 49.54 49.56 49.92 50.24 50.82 51.28 54.01 55.11 55.41 60.17 55.62 58.80 56.24 54.19 52.53 54.03 51.63 54.48 53.96 54.67 54.38 59.84 54.98 54.73 57.85 55.31 55.52 50.77 53.81 54.06 53.20 52.78 58.81 63.06 63.50 64.43 63.68 62.49 62.05 62.21 61.86 60.95 60.81 59.66 58.03 56.49 54.66 54.45 54.92
49.78 49.55 49.78 49.89 49.29 49.19 49.29 49.72 50.14 52.74 50.84 47.85 50.18 55.01 59.36 57.17 54.33 51.99 51.10 53.79 52.37 51.15 55.64 54.32 54.23 55.69 58.25 59.69 56.58 58.12 53.90 55.52 50.06 58.01 54.09 51.05 56.98 63.21 62.61 60.71 61.95 62.64 62.00 62.23 62.10 60.40 60.02 59.39 58.69 57.10 55.50 54.30 54.38 54.96
49.19 49.51 49.30 48.79 48.36 48.54 48.98 49.30 49.37 50.58 52.03 53.64 53.50 53.86 53.28 53.49 44.52 46.68 46.56 50.33 51.19 55.05 56.64 55.77 53.63 55.09 58.83 58.81 57.24 55.94 51.95 51.18 57.05 52.21 51.12 54.28 62.02 62.63 64.01 62.99 61.49 62.43 62.24 61.20 60.09 59.71 58.72 57.33 56.84 55.87 54.48 54.28 54.39 54.84
47.95 47.76 47.85 48.09 48.27 48.52 48.93 49.09 49.68 51.34 49.45 48.33 48.79 41.38 48.70 48.10 50.84 51.24 51.87 53.69 56.79 57.26 57.47 55.88 54.75 54.20 56.91 55.01 55.34 51.56 54.30 54.58 49.51 48.16 50.12 58.55 63.24 63.21 63.34 63.15 62.07 60.74 60.77 59.99 59.28 58.60 57.12 56.27 55.35 55.33 55.38 55.29 54.14 53.64
47.23 47.55 47.81 48.65 48.55 49.14 49.99 50.65 50.40 50.33 48.06 46.60 49.10 43.31 47.96 52.72 55.30 55.89 56.70 56.29 58.71 60.45 57.91 56.06 54.88 55.45 53.85 52.86 54.45 53.28 50.76 48.30 50.33 50.20 56.11 61.35 64.10 64.02 63.51 63.34 62.10 60.92 60.43 59.81 59.38 57.66 56.89 56.05 54.99 54.94 55.65 55.96 55.64 54.51
46.76 46.88 48.05 48.67 48.59 48.82 49.90 49.91 49.62 49.12 48.22 46.74 49.44 49.02 51.90 51.51 52.34 54.66 55.65 55.85 59.19 58.66 59.10 56.36 53.49 52.31 52.15 53.36 51.25 49.95 49.06 48.08 51.69 58.51 60.76 63.34 64.65 65.10 64.29 63.86 61.29 60.48 61.30 60.12 59.24 58.25 56.99 55.75 55.28 56.00 56.34 56.57 56.43 55.74
46.00 46.88 47.11 47.30 47.74 48.43 49.31 49.62 48.61 45.33 43.82 43.89 46.42 50.11 51.35 51.59 52.42 53.97 56.28 55.87 59.96 57.47 53.73 54.01 50.69 50.35 54.71 51.02 50.33 53.33 51.12 54.04 58.08 60.54 62.34 64.84 65.16 64.98 64.90 62.74 61.32 63.22 61.62 60.16 59.39 58.70 57.64 57.27 56.81 55.92 55.45 56.70 56.90 57.14
46.03 47.07 46.47 46.74 47.37 47.83 48.69 47.86 45.22 43.52 40.55 45.89 46.32 49.57 51.09 51.64 52.03 53.42 55.84 58.93 58.64 56.89 57.76 54.52 56.15 51.83 49.64 48.75 50.76 54.99 56.88 58.16 60.72 61.64 62.80 65.14 65.67 65.35 64.86 64.22 64.08 63.30 62.32 61.20 60.12 58.47 57.27 56.74 56.06 55.72 57.07 57.43 56.63 57.44
46.79 47.10 46.89 46.46 46.52 44.24 43.90 44.11 45.89 40.60 42.87 45.96 48.66 50.54 51.44 50.73 53.23 53.21 54.33 57.12 59.10 59.42 57.17 56.09 52.78 51.99 52.70 56.00 57.13 57.15 59.35 59.23 59.38 61.49 63.64 66.19 66.08 64.65 65.07 64.11 62.70 62.05 61.24 60.01 58.61 56.45 56.29 57.55 56.83 57.79 57.29 56.84 55.49 55.65
47.10 47.28 47.33 46.87 46.31 42.52 41.57 43.27 47.79 42.59 42.31 45.92 48.24 47.63 48.38 48.78 51.39 52.68 53.95 55.68 56.50 56.06 54.39 53.98 54.18 55.95 57.01 57.63 60.41 59.80 58.62 62.54 61.76 60.49 61.08 63.09 65.91 65.04 64.53 62.76 60.80 61.43 60.66 60.09 59.05 53.73 57.30 56.58 57.18 57.17 56.96 55.49 55.37 54.77
46.32 46.99 46.11 46.93 44.33 43.21 41.64 42.36 42.64 44.22 46.00 46.07 47.70 46.95 46.81 49.70 48.58 49.42 49.92 54.41 52.92 52.66 52.78 56.41 55.22 58.95 61.13 62.74 59.69 61.93 61.98 61.38 59.05 60.91 60.71 60.18 63.09 62.80 62.99 62.45 61.98 61.17 59.25 58.60 57.54 55.42 52.91 56.41 57.69 57.44 56.84 55.85 56.77 56.63
47.21 45.74 44.95 44.94 41.73 42.38 40.66 45.17 43.29 45.55 44.41 45.40 46.24 46.74 44.20 44.22 46.27 48.33 51.62 49.17 50.21 53.29 55.88 57.76 59.73 59.97 60.56 62.29 61.55 63.74 64.35 65.69 64.87 61.45 56.87 58.30 57.30 59.89 61.46 61.14 60.54 59.02 58.32 58.17 58.31 56.95 55.78 57.10 58.11 57.80 57.48 57.19 54.30 56.70
46.20 44.71 42.67 42.27 38.86 38.07 38.55 46.57 41.67 43.23 41.63 42.69 44.46 41.73 42.52 44.40 47.13 51.25 47.61 49.82 50.48 54.11 55.94 58.59 58.90 62.16 61.54 63.01 63.33 63.41 64.10 63.47 60.83 60.90 60.89 58.15 61.66 59.03 60.11 60.66 60.44 60.27 58.82 59.73 58.39 56.94 57.78 54.19 55.64 57.10 57.91 57.27 57.12 53.16
45.72 41.00 38.19 38.35 37.71 36.01 43.89 41.38 43.09 42.44 43.26 41.28 41.54 40.24 42.81 44.42 49.13 46.49 45.95 49.06 51.64 54.31 54.26 60.32 60.47 58.66 60.09 60.38 59.57 60.34 61.56 62.07 60.75 61.20 61.84 60.39 57.21 61.41 59.53 58.14 59.14 60.29 61.02 58.85 57.53 56.50 57.49 57.38 54.28 56.32 56.63 56.98 56.21 56.63
36.20 37.13 37.02 34.04 40.68 39.64 39.49 39.56 41.06 41.96 39.96 42.14 40.43 41.38 43.40 46.98 43.57 43.92 45.77 48.87 51.11 53.09 55.61 55.73 55.63 55.46 55.92 57.34 58.63 58.97 61.66 60.20 58.97 58.15 61.09 61.10 59.56 60.71 60.54 61.87 58.36 58.43 60.55 59.30 57.92 57.08 56.55 57.50 57.45 56.76 56.45 55.18 56.24 55.82
32.37 39.42 37.91 38.44 39.40 39.60 40.14 38.58 40.34 40.75 41.20 40.24 41.33 44.80 46.11 43.80 41.03 40.77 45.73 51.27 52.26 54.12 55.00 54.98 54.27 54.35 54.64 56.13 55.55 56.41 59.06 60.43 60.74 58.46 59.66 60.39 59.94 59.04 58.66 57.51 57.14 58.84 61.01 59.78 58.38 57.86 57.15 57.73 57.32 57.00 55.84 54.16 47.96 55.93
34.54 38.57 42.44 45.96 44.04 42.85 41.89 44.58 44.71 42.13 40.07 40.47 41.80 42.57 42.97 40.06 41.25 46.05 51.35 55.35 54.18 56.54 57.81 57.61 57.34 56.16 56.06 58.16 57.54 57.59 58.11 58.96 60.48 59.55 60.77 60.15 59.90 60.09 59.81 57.47 57.58 60.33 60.46 60.56 59.80 58.61 57.36 57.88 57.41 57.05 56.56 57.29 57.17 57.09
41.78 42.51 39.03 42.20 42.21 43.53 40.13 41.16 40.54 40.49 41.93 45.29 44.46 40.80 40.73 42.00 44.45 51.28 53.94 56.29 57.31 57.25 57.56 57.42 57.73 57.52 57.34 57.60 58.48 58.63 58.93 59.01 59.12 59.31 59.39 59.17 59.64 59.93 60.67 61.49 58.87 49.47 58.20 60.83 60.49 59.21 59.89 58.15 57.38 57.43 57.48 57.22 57.34 57.34
41.26 43.95 43.85 40.78 42.17 42.03 42.13 41.65 42.16 44.93 48.33 46.66 44.44 43.66 46.17 51.59 52.30 52.18 55.03 55.60 55.78 56.47 55.35 55.04 56.07 57.63 57.59 58.59 59.41 59.07 58.82 58.11 57.23 55.08 54.63 54.76 55.75 56.48 59.81 60.19 61.08 59.80 61.09 59.23 45.85 52.73 58.52 58.22 58.22 58.38 58.06 57.53 57.41 57.97
42.19 45.66 42.65 41.75 40.46 39.46 43.02 45.50 45.21 48.18 49.35 49.60 50.43 49.28 50.51 52.32 53.76 55.56 55.39 55.73 55.49 54.64 55.11 55.62 55.93 55.74 55.24 55.61 56.41 57.60 58.70 59.64 59.07 55.73 54.36 55.90 55.94 58.84 60.58 59.47 60.05 60.76 61.15 61.06 58.81 58.25 48.82 55.83 54.00 58.61 57.10 57.37 55.98 55.09
47.13 45.50 42.93 42.68 41.92 45.06 47.04 48.62 49.27 49.56 49.59 48.99 50.20 48.71 48.42 50.75 53.41 55.31 55.48 55.82 55.67 55.47 54.91 54.51 55.00 55.60 55.31 55.18 55.23 56.27 56.40 60.28 61.01 61.37 58.31 59.93 59.71 59.28 60.59 58.72 59.05 60.66 59.40 58.77 58.05 57.91 57.14 56.15 56.55 56.46 56.93 56.92 54.33 53.00
44.32 43.15 42.91 40.39 42.57 47.12 48.41 47.13 46.78 46.42 47.83 47.76 47.83 50.12 50.31 50.01 48.84 53.79 56.52 56.86 56.17 54.83 53.58 54.01 54.73 54.31 57.06 58.58 60.31 59.89 52.66 58.99 59.63 60.23 60.49 59.27 60.23 60.51 60.63 60.46 60.97 59.15 59.37 58.52 58.66 57.94 57.23 56.45 56.49 56.52 56.39 56.34 56.24 57.24
44.13 44.05 43.66 43.22 44.28 43.65 47.01 46.30 46.62 46.72 47.73 47.59 49.18 51.05 51.35 51.30 48.77 53.51 57.96 58.76 57.37 57.36 57.61 58.25 57.64 58.07 60.27 60.43 60.14 58.09 53.17 61.12 55.51 48.43 44.09 43.36 45.39 48.93 57.89 59.64 59.28 59.85 59.68 58.91 58.20 57.88 57.44 57.36 57.50 57.68 57.92 57.52 56.96 57.94
MSLP
1018.17 1018.16 1018.15 1018.23 1018.38 1018.52 1018.53 1018.51 1018.45 1018.24 1017.91 1017.50 1017.04 1016.50 1015.89 1015.27 1014.61 1013.94 1010.58 1008.91 1008.58 1006.65 1003.95 1002.71 1002.03 1001.32 1000.54 999.87 999.43 998.33 998.16 998.00 997.80 998.01 998.24 998.08 998.00 998.08 998.32 998.98 999.55 1000.08 1000.56 1000.76 1000.98 1001.18 1001.61 1001.65 1001.63 1001.96 1003.09 1003.01 1003.25 1003.86
1017.67 1017.74 1017.75 1017.82 1018.00 1018.12 1018.23 1018.26 1018.22 1018.08 1017.79 1017.42 1017.00 1016.56 1016.10 1015.52 1014.92 1014.29 1010.95 1009.48 1009.09 1008.10 1005.01 1004.12 1003.27 1002.46 1001.98 1001.58 1000.96 999.81 998.91 998.53 998.83 998.49 998.70 998.78 999.01 998.83 999.10 999.54 999.93 1000.44 1000.71 1001.49 1001.94 1002.56 1003.37 1003.27 1003.24 1003.20 1003.26 1004.19 1004.78 1005.35
1017.19 1017.32 1017.35 1017.40 1017.62 1017.78 1017.86 1017.97 1017.98 1017.84 1017.61 1017.29 1016.91 1016.50 1016.10 1015.71 1015.25 1015.05 1012.83 1010.67 1008.99 1007.03 1004.65 1002.78 1001.85 1001.21 1001.61 1001.41 1001.29 1000.96 999.86 999.93 999.94 1000.41 1000.57 1000.13 1000.24 1000.34 1000.20 1000.23 1000.36 1000.43 1000.91 1001.91 1002.60 1003.04 1003.58 1003.84 1004.16 1004.31 1004.58 1005.39 1006.10 1006.81
1016.73 1016.89 1017.00 1017.05 1017.24 1017.46 1017.58 1017.65 1017.67 1017.57 1017.38 1017.15 1016.82 1016.38 1015.94 1015.57 1015.24 1015.04 1013.03 1011.11 1009.76 1007.82 1005.20 1001.42 1001.06 1001.70 1001.79 1001.54 1001.72 1001.51 1001.29 1001.31 1001.21 1001.53 1001.39 1001.21 1001.22 1001.23 1001.06 1001.18 1001.41 1001.48 1002.29 1002.42 1002.90 1003.40 1004.17 1004.59 1004.97 1005.61 1006.21 1006.86 1007.51 1008.22
1016.32 1016.46 1016.60 1016.72 1016.92 1017.16 1017.31 1017.38 1017.37 1017.30 1017.14 1016.90 1016.61 1016.24 1015.81 1015.32 1014.87 1014.11 1012.46 1010.97 1009.68 1009.23 1006.33 1003.57 1002.04 1001.33 1001.64 1001.94 1001.96 1002.08 1001.89 1001.66 1001.56 1001.72 1001.77 1001.68 1001.55 1001.61 1001.44 1001.66 1001.55 1001.53 1001.93 1002.41 1002.69 1003.40 1004.11 1004.64 1005.63 1006.46 1007.27 1008.06 1008.89 1009.31
1015.93 1016.06 1016.16 1016.35 1016.63 1016.90 1017.06 1017.17 1017.16 1017.03 1016.86 1016.63 1016.32 1015.97 1015.59 1015.20 1014.66 1013.16 1010.19 1009.53 1009.56 1009.13 1007.93 1004.11 1001.54 1001.60 1001.83 1001.78 1002.25 1002.14 1002.05 1001.84 1001.81 1001.75 1001.69 1001.61 1002.21 1002.58 1002.10 1001.87 1001.93 1001.79 1002.25 1002.58 1003.40 1004.23 1004.72 1005.51 1006.53 1007.12 1008.04 1008.88 1009.69 1009.89
1015.59 1015.68 1015.79 1016.03 1016.40 1016.67 1016.86 1016.95 1016.93 1016.78 1016.53 1016.27 1015.98 1015.62 1015.32 1015.09 1014.75 1012.73 1012.32 1011.64 1011.77 1010.81 1008.18 1004.85 1002.29 1001.33 1002.05 1002.19 1002.17 1002.18 1002.04 1002.11 1002.11 1001.97 1001.93 1001.97 1002.25 1002.96 1002.94 1002.62 1002.35 1002.31 1002.75 1003.57 1004.04 1004.84 1005.70 1006.47 1007.41 1008.23 1008.83 1009.53 1010.41 1010.50
1015.19 1015.31 1015.51 1015.90 1016.26 1016.49 1016.63 1016.70 1016.65 1016.46 1016.18 1015.84 1015.50 1015.14 1014.74 1014.53 1014.18 1012.66 1010.94 1011.12 1011.85 1010.24 1007.77 1005.21 1002.39 1001.75 1002.12 1001.87 1001.81 1002.01 1002.09 1002.29 1002.29 1002.33 1001.96 1002.18 1003.03 1003.04 1002.98 1002.99 1002.91 1003.14 1003.64 1004.21 1004.80 1005.53 1006.15 1007.19 1008.13 1009.05 1009.68 1010.06 1010.31 1010.87
1014.87 1015.08 1015.48 1015.86 1016.22 1016.40 1016.54 1016.50 1016.32 1016.05 1015.72 1015.42 1015.00 1014.52 1014.07 1013.32 1011.30 1010.85 1011.30 1011.35 1010.99 1010.33 1007.61 1004.61 1002.50 1001.02 1001.50 1001.68 1001.72 1001.85 1002.16 1001.92 1002.07 1002.01 1002.27 1002.37 1002.56 1002.58 1002.77 1003.30 1003.26 1003.77 1004.30 1004.71 1005.33 1005.96 1006.92 1007.91 1008.81 1009.62 1010.01 1010.43 1010.94 1011.46
1014.76 1015.23 1015.65 1016.01 1016.18 1016.39 1016.46 1016.37 1016.08 1015.63 1015.24 1015.01 1014.63 1012.84 1011.05 1010.60 1011.06 1011.18 1011.30 1010.22 1009.68 1008.22 1007.28 1004.67 1002.35 1001.17 1001.34 1001.42 1001.49 1001.74 1002.22 1002.13 1001.44 1001.90 1002.21 1002.22 1002.09 1002.38 1002.75 1003.18 1003.57 1004.17 1004.77 1005.09 1005.70 1006.52 1007.37 1008.28 1009.15 1010.01 1010.65 1011.17 1011.72 1012.10
1015.31 1015.62 1015.89 1016.12 1016.26 1016.46 1016.42 1016.24 1015.87 1015.37 1013.95 1013.87 1012.41 1011.27 1010.69 1010.93 1010.71 1009.62 1008.40 1007.79 1006.69 1005.63 1004.54 1003.52 1002.91 1001.38 1000.88 1000.97 1001.17 1001.74 1001.60 1001.90 1001.49 1001.40 1001.72 1001.75 1001.83 1001.89 1002.61 1003.41 1004.15 1004.68 1005.16 1005.53 1006.18 1007.10 1007.99 1008.72 1009.63 1010.48 1011.21 1011.83 1012.13 1012.43
1015.77 1015.99 1016.10 1016.24 1016.37 1016.47 1016.40 1016.20 1015.93 1015.00 1015.11 1015.33 1014.98 1012.78 1010.86 1009.64 1008.95 1007.62 1006.36 1005.38 1004.39 1003.32 1002.02 1001.94 1001.85 1001.75 1001.00 1001.33 1001.36 1001.65 1001.84 1002.12 1001.37 1001.42 1001.72 1001.73 1001.83 1002.15 1002.86 1003.69 1004.49 1005.07 1005.53 1006.33 1007.33 1008.14 1009.01 1009.76 1010.38 1011.05 1011.67 1012.06 1012.41 1012.80
1016.06 1016.15 1016.24 1016.36 1016.45 1016.47 1016.43 1016.30 1016.12 1015.95 1015.08 1014.20 1013.71 1011.38 1009.32 1008.11 1007.34 1006.20 1004.32 1002.86 1002.37 1001.60 1001.01 1001.29 1001.32 1001.42 1001.80 1002.04 1001.88 1002.18 1002.12 1001.93 1001.73 1001.54 1001.51 1001.51 1002.90 1003.47 1003.76 1004.34 1004.99 1005.51 1006.31 1007.39 1008.35 1009.27 1010.03 1010.67 1011.24 1011.69 1012.17 1012.58 1012.75 1013.00
1016.27 1016.35 1016.36 1016.41 1016.43 1016.43 1016.37 1016.26 1016.12 1015.68 1015.51 1014.00 1011.74 1010.40 1007.95 1006.20 1004.55 1003.64 1002.72 1001.57 1000.77 1000.50 1000.77 1001.16 1001.12 1001.40 1001.80 1002.25 1001.79 1001.92 1002.06 1001.77 1001.46 1001.25 1001.10 1002.16 1003.17 1003.79 1004.37 1004.96 1005.56 1006.31 1007.17 1008.20 1009.16 1009.98 1010.60 1011.17 1011.66 1012.13 1012.45 1012.90 1013.10 1013.29
1016.46 1016.42 1016.40 1016.28 1016.34 1016.31 1016.22 1016.09 1016.04 1015.86 1015.13 1013.32 1010.68 1008.32 1006.09 1004.45 1002.78 1002.08 1001.63 1001.05 1000.77 1000.24 1000.67 1001.23 1001.28 1001.51 1001.61 1001.84 1001.58 1001.68 1001.89 1001.46 1000.85 1000.79 1001.26 1002.47 1003.54 1004.28 1004.88 1005.51 1006.20 1006.98 1007.80 1008.71 1009.51 1010.19 1010.81 1011.38 1011.87 1012.18 1012.49 1012.64 1013.05 1013.39
1016.42 1016.30 1016.29 1016.36 1016.39 1016.33 1016.14 1016.06 1016.00 1015.77 1014.54 1013.06 1010.21 1007.16 1004.94 1003.68 1002.73 1002.08 1001.75 1001.23 1001.06 1000.79 1000.68 1000.91 1001.25 1001.07 1001.09 1001.18 1001.12 1000.87 1000.93 1000.37 1000.33 1000.94 1002.22 1003.42 1004.19 1004.79 1005.34 1005.94 1006.75 1007.43 1008.16 1008.87 1009.61 1010.29 1010.86 1011.45 1011.68 1011.96 1012.47 1012.45 1012.60 1013.10
1016.48 1016.22 1016.61 1016.56 1016.47 1016.23 1016.08 1016.01 1015.81 1015.27 1013.88 1011.75 1008.60 1007.10 1005.78 1004.94 1003.71 1002.85 1001.75 1001.57 1001.26 1000.87 1000.90 1000.83 1000.94 1000.74 1000.73 1000.45 1000.19 1000.03 999.93 999.99 1000.30 1001.44 1002.63 1003.85 1004.68 1005.31 1005.96 1006.47 1007.11 1007.69 1008.41 1009.09 1009.79 1010.36 1010.89 1011.33 1011.48 1011.96 1012.16 1012.39 1012.15 1012.55
1016.19 1016.45 1016.59 1016.54 1016.38 1016.09 1015.98 1015.95 1015.54 1014.63 1013.18 1010.92 1008.42 1006.79 1006.53 1005.89 1004.89 1004.14 1003.26 1002.05 1001.70 1001.27 1001.46 1001.50 1001.50 1000.77 1000.45 1000.16 999.72 999.63 999.54 999.98 1000.63 1001.71 1002.99 1004.27 1005.29 1005.99 1006.45 1006.94 1007.53 1008.10 1008.68 1009.31 1009.92 1010.47 1010.89 1011.21 1011.42 1011.44 1011.59 1011.62 1011.73 1012.06
1016.29 1016.40 1016.50 1016.60 1016.54 1016.37 1015.73 1015.55 1015.11 1013.65 1012.05 1010.22 1008.72 1007.58 1007.57 1006.98 1005.91 1004.89 1003.99 1003.42 1002.42 1002.36 1002.65 1002.23 1001.65 1000.95 1000.56 1000.22 999.88 999.76 999.86 1000.33 1001.24 1002.35 1003.60 1004.59 1005.72 1006.35 1006.90 1007.35 1007.98 1008.43 1008.94 1009.43 1009.91 1010.24 1010.57 1010.93 1010.84 1010.83 1011.02 1010.70 1010.72 1011.22
1016.30 1016.22 1016.22 1016.44 1016.56 1016.29 1015.46 1014.65 1014.29 1013.43 1011.49 1010.05 1009.15 1008.50 1008.33 1007.92 1006.82 1005.74 1004.42 1003.68 1003.10 1003.05 1002.75 1001.93 1001.52 1001.24 1000.82 1001.21 1000.52 1000.43 1000.57 1001.03 1001.72 1002.67 1003.79 1005.19 1006.12 1006.61 1006.98 1007.28 1007.69 1008.21 1008.82 1009.36 1009.79 1009.87 1010.01 1010.52 1010.66 1010.38 1010.37 1010.74 1010.90 1011.19
1016.10 1015.97 1016.05 1016.19 1016.27 1016.16 1015.42 1014.22 1013.52 1012.68 1011.44 1010.16 1009.28 1009.21 1009.29 1009.10 1008.45 1006.94 1005.36 1004.30 1003.67 1003.16 1002.38 1001.83 1002.07 1002.19 1001.78 1001.80 1001.85 1001.71 1001.72 1001.86 1001.98 1002.45 1003.09 1004.24 1005.32 1005.91 1006.53 1006.91 1007.13 1007.63 1008.12 1008.66 1009.10 1009.58 1009.83 1009.76 1009.67 1009.78 1010.31 1010.53 1010.80 1010.89
1015.38 1015.78 1015.93 1016.06 1015.63 1015.37 1014.92 1013.82 1013.11 1012.39 1011.77 1010.70 1010.05 1009.79 1009.76 1009.46 1008.82 1007.61 1006.00 1005.04 1003.73 1002.73 1002.34 1002.36 1002.44 1002.46 1002.37 1002.38 1002.26 1002.30 1001.78 1002.03 1002.46 1002.62 1003.37 1004.10 1005.47 1005.30 1005.69 1006.04 1006.58 1007.20 1007.70 1008.10 1008.40 1008.79 1009.34 1009.37 1009.13 1009.33 1009.80 1010.36 1010.75 1010.89
1015.38 1015.76 1015.72 1015.40 1015.08 1014.61 1013.75 1012.90 1012.54 1011.83 1011.05 1010.58 1010.42 1010.14 1009.72 1009.23 1008.57 1007.53 1005.63 1004.02 1003.57 1003.28 1002.78 1002.61 1002.50 1002.67 1002.45 1002.46 1002.53 1002.40 1002.43 1002.37 1002.28 1002.67 1003.37 1004.12 1004.90 1005.12 1005.38 1006.19 1006.71 1006.64 1007.51 1007.91 1008.16 1008.63 1008.59 1009.01 1009.11 1009.26 1009.45 1010.09 1010.30 1011.08
1015.29 1015.34 1014.88 1014.35 1014.15 1013.30 1012.23 1011.83 1011.74 1011.15 1010.72 1010.42 1009.88 1009.51 1009.06 1008.73 1008.13 1007.11 1004.93 1003.52 1003.04 1003.00 1002.70 1002.55 1002.61 1002.53 1002.79 1002.71 1002.45 1002.40 1002.62 1002.78 1002.46 1002.68 1002.97 1003.52 1004.40 1005.04 1005.51 1006.83 1007.90 1008.29 1007.99 1008.51 1009.52 1009.99 1010.02 1008.82 1008.66 1009.18 1009.42 1009.56 1010.16 1010.33
1015.00 1014.53 1014.22 1013.33 1012.71 1012.08 1010.98 1010.80 1010.20 1009.93 1009.42 1009.21 1009.23 1008.60 1008.09 1008.12 1007.36 1006.19 1004.28 1003.18 1002.96 1002.59 1002.37 1002.35 1002.61 1002.80 1002.35 1002.16 1002.26 1002.31 1002.37 1002.45 1002.42 1002.71 1003.19 1003.44 1004.66 1005.21 1006.04 1006.82 1007.63 1008.44 1008.04 1008.59 1009.17 1009.43 1010.00 1009.24 1008.44 1008.44 1008.63 1009.15 1009.61 1010.04
1013.71 1012.70 1012.39 1011.78 1011.18 1010.32 1009.66 1009.23 1008.92 1008.67 1008.73 1008.58 1008.25 1007.88 1007.39 1007.05 1006.42 1005.05 1003.47 1002.41 1002.37 1002.27 1002.28 1002.27 1002.53 1002.64 1002.65 1002.47 1002.22 1001.98 1002.07 1002.33 1002.62 1002.63 1002.94 1003.26 1003.44 1003.60 1004.24 1005.21 1006.16 1007.40 1007.61 1008.04 1008.53 1008.70 1008.41 1008.05 1008.44 1008.12 1008.57 1008.94 1009.33 1009.29
1011.87 1010.60 1010.25 1010.23 1010.07 1009.78 1009.08 1008.50 1008.22 1008.23 1008.08 1007.61 1007.29 1007.10 1006.54 1006.04 1004.93 1003.85 1003.54 1002.98 1002.66 1002.64 1002.79 1002.76 1002.82 1002.68 1002.56 1002.26 1002.18 1002.16 1002.10 1002.08 1002.36 1002.60 1002.84 1003.26 1003.47 1003.67 1003.79 1004.47 1005.41 1006.85 1007.37 1008.48 1008.37 1007.81 1007.72 1007.80 1007.92 1007.69 1007.87 1008.01 1007.98 1008.32
1009.51 1008.80 1009.03 1009.07 1008.76 1008.78 1008.56 1008.07 1007.50 1007.10 1006.67 1006.71 1006.87 1006.15 1005.64 1005.00 1004.56 1003.78 1003.43 1003.76 1003.35 1003.16 1003.01 1003.07 1002.98 1002.86 1002.57 1002.39 1002.52 1002.70 1002.58 1002.39 1002.51 1002.91 1002.97 1003.13 1003.28 1003.26 1003.62 1004.22 1005.25 1005.97 1006.28 1006.96 1007.02 1007.34 1007.22 1007.35 1007.26 1007.32 1007.28 1007.32 1007.41 1007.68
1008.06 1007.42 1007.33 1007.71 1007.85 1007.77 1007.30 1007.16 1006.75 1006.26 1006.28 1006.25 1005.89 1005.20 1004.90 1004.93 1004.96 1004.75 1003.70 1003.16 1003.29 1003.04 1002.96 1002.75 1002.58 1002.49 1002.35 1002.33 1002.61 1002.84 1002.66 1002.55 1002.93 1003.07 1003.24 1003.09 1002.78 1002.87 1003.38 1004.32 1005.15 1005.59 1005.87 1006.33 1006.84 1007.59 1006.64 1006.46 1006.83 1007.01 1006.75 1006.87 1007.38 1007.61
1006.76 1006.56 1006.45 1006.70 1006.73 1006.47 1005.92 1005.63 1005.40 1005.44 1005.50 1005.31 1005.48 1005.59 1004.46 1003.46 1003.44 1003.16 1002.96 1002.70 1002.67 1002.83 1002.64 1002.23 1001.91 1001.75 1001.77 1001.70 1002.04 1002.09 1002.40 1002.84 1002.77 1003.47 1003.82 1003.13 1002.87 1002.82 1003.43 1004.29 1005.05 1004.27 1004.39 1004.88 1005.64 1006.20 1006.47 1006.53 1006.80 1006.65 1007.00 1007.34 1008.37 1008.74
1006.27 1005.94 1005.98 1006.07 1005.92 1005.64 1005.14 1004.82 1004.54 1004.29 1004.09 1003.96 1003.88 1003.78 1003.24 1002.75 1002.12 1001.85 1001.90 1001.97 1001.97 1001.97 1001.81 1001.64 1001.40 1001.30 1001.21 1001.21 1001.43 1001.92 1002.24 1002.44 1002.99 1003.43 1003.80 1003.68 1003.04 1002.94 1003.31 1004.11 1004.44 1003.95 1004.11 1004.47 1004.96 1005.55 1006.04 1006.48 1006.35 1006.60 1007.16 1007.84 1008.35 1009.31
1006.18 1006.08 1005.93 1005.90 1005.54 1005.21 1005.15 1004.85 1004.56 1004.26 1003.93 1003.67 1003.19 1002.69 1002.46 1002.15 1001.88 1001.51 1001.37 1001.34 1001.55 1001.35 1001.31 1001.37 1001.01 1000.96 1000.93 1001.24 1001.65 1002.53 1003.33 1003.41 1003.73 1004.33 1003.71 1003.33 1002.73 1002.68 1003.24 1003.89 1003.63 1003.57 1004.04 1004.77 1004.84 1005.14 1005.79 1006.18 1006.55 1006.87 1007.21 1007.72 1007.87 1007.97
1006.01 1005.98 1005.97 1005.89 1005.32 1005.24 1004.94 1004.78 1004.49 1004.18 1003.68 1003.59 1003.40 1003.12 1002.91 1002.80 1002.39 1001.88 1001.86 1001.59 1001.44 1001.23 1001.14 1000.89 1000.70 1000.80 1001.39 1002.02 1002.82 1003.18 1004.13 1003.74 1004.20 1004.47 1004.25 1003.80 1003.38 1004.20 1003.42 1003.29 1003.41 1003.69 1003.99 1004.33 1004.59 1004.86 1005.32 1005.75 1006.09 1006.25 1006.54 1007.01 1006.99 1006.65
Wind_Speed
10 9 9 10 9 9 8 8 9 11 13 15 16 17 19 20 20 13 9 3 6 7 11 11 11 11 13 12 11 9 3 4 4 5 7 10 5 8 2 3 6 8 9 8 10 13 6 11 4 4 4 5 7 12
9 9 9 10 9 9 8 8 9 10 12 14 16 16 17 18 19 17 7 10 7 6 10 16 16 14 10 7 7 10 7 5 7 5 3 5 8 8 3 7 8 5 4 5 6 5 4 7 7 6 10 10 8 8
9 9 9 10 10 9 8 7 8 10 11 14 15 16 16 16 16 12 8 8 10 8 11 13 11 11 8 8 6 6 7 9 5 6 6 5 7 7 8 8 11 4 6 2 6 8 6 5 5 6 9 12 11 11
9 9 8 9 10 9 7 7 8 9 11 12 14 16 16 16 15 12 6 8 7 6 6 7 8 6 4 9 4 8 7 3 5 3 6 6 8 7 8 9 4 4 2 2 6 9 7 5 7 9 11 10 11 8
8 8 8 9 9 9 8 7 7 8 10 12 14 15 16 17 16 12 9 9 6 5 7 10 15 6 7 9 5 7 7 7 5 5 6 8 9 8 7 6 9 6 6 8 3 8 4 9 11 9 9 8 7 5
9 9 8 10 10 8 7 7 7 8 10 13 14 15 16 16 16 7 5 5 6 3 5 5 4 5 2 2 5 7 6 6 5 5 5 6 6 2 4 7 11 10 7 5 3 6 6 12 9 6 9 5 5 4
9 9 8 10 9 8 6 7 8 9 12 14 15 16 15 13 8 5 7 5 10 7 5 5 6 7 6 6 7 5 6 3 4 6 6 8 3 4 5 11 12 6 7 8 2 9 10 11 8 7 6 6 6 5
8 8 10 10 8 7 6 6 8 10 13 15 16 17 16 15 13 8 4 13 5 6 5 5 6 4 8 6 6 5 5 6 4 6 4 5 4 4 5 8 9 4 7 5 9 7 10 12 10 8 4 3 0 4
7 9 10 9 7 5 4 6 9 13 15 16 18 20 7 5 5 5 3 7 5 6 6 6 8 7 8 8 6 6 3 6 4 7 8 5 7 6 6 8 7 9 7 7 10 11 12 10 8 5 1 4 2 5
11 11 9 7 5 2 3 7 11 15 17 17 8 6 5 5 7 7 4 5 6 6 6 6 9 7 7 7 7 5 4 6 5 7 6 10 10 8 7 7 5 8 7 8 9 9 8 7 6 5 3 5 3 3
10 8 6 5 2 1 3 7 12 16 11 5 5 3 3 6 4 5 5 6 7 6 7 9 12 9 4 6 8 5 4 4 6 6 6 5 10 13 9 10 7 8 8 9 7 8 6 9 8 6 5 3 3 2
7 4 3 4 1 2 4 8 12 8 5 5 7 8 5 5 5 6 5 5 7 9 5 10 10 11 3 4 4 6 5 2 5 2 3 8 2 12 12 13 12 11 9 13 12 10 9 8 7 6 5 3 3 3
5 4 4 2 1 3 5 7 8 9 11 4 5 5 5 5 1 7 9 6 6 5 4 6 9 10 3 3 4 2 4 5 4 4 9 4 9 8 9 11 13 12 13 13 12 10 10 9 8 7 6 3 2 2
2 1 1 3 4 5 6 7 8 6 2 4 6 4 6 8 8 10 10 10 7 8 8 6 7 7 4 8 5 5 4 5 4 8 12 9 11 11 11 11 12 14 14 13 11 10 10 8 7 6 5 4 2 3
3 3 5 7 3 3 7 6 4 1 3 4 6 5 10 10 9 7 11 5 1 2 8 8 6 7 8 4 4 4 3 5 6 10 1 10 13 12 12 12 13 13 13 11 11 10 9 9 7 6 3 4 4 2
6 9 1 7 5 6 5 3 2 2 3 4 7 9 8 9 10 6 6 4 4 5 6 8 6 5 6 6 6 7 7 6 6 7 9 11 12 12 12 11 9 9 11 10 9 9 9 8 7 7 6 4 5 4
8 2 4 6 8 7 3 2 3 3 4 7 8 10 10 9 9 7 5 7 6 7 5 5 7 7 5 9 9 8 9 7 8 11 10 11 11 11 10 9 9 11 9 10 9 8 7 7 6 5 6 7 5 6
1 4 5 6 6 3 3 2 2 4 7 9 10 5 4 8 8 8 8 3 3 7 2 2 3 5 4 5 7 9 4 6 7 10 11 11 10 10 9 10 10 9 9 8 8 8 8 7 7 7 6 6 6 5
4 4 3 3 3 2 2 3 3 4 9 8 8 5 3 7 9 7 6 8 5 3 4 3 5 4 6 4 0 4 3 9 9 10 10 11 11 11 11 11 10 10 10 10 10 8 8 8 7 4 9 7 2 5
9 11 8 4 1 2 3 3 2 4 4 2 5 3 3 5 9 11 10 5 4 5 5 4 5 1 1 4 5 4 5 9 10 11 11 9 7 10 10 11 10 11 9 9 8 7 7 7 7 6 2 6 3 5
5 2 1 5 4 3 3 3 4 3 5 4 4 3 2 2 5 11 8 8 8 10 10 5 4 4 7 4 2 3 4 4 4 8 10 11 12 12 11 10 11 10 9 9 8 7 5 7 6 7 7 4 5 3
3 4 1 2 3 5 4 4 3 4 3 2 2 4 2 3 3 9 8 9 11 8 7 1 2 5 4 7 6 4 3 6 6 6 7 9 3 5 11 10 10 8 6 7 8 8 8 8 7 7 7 5 3 3
6 2 2 4 4 5 4 2 4 3 3 1 3 3 2 3 4 6 6 9 7 7 8 5 3 5 4 6 3 2 2 3 5 6 7 5 8 2 2 2 5 10 5 5 3 4 7 8 4 3 5 6 5 5
5 2 3 4 5 4 5 5 2 3 3 3 3 4 4 5 2 3 9 8 5 6 7 3 2 5 5 1 4 6 5 5 6 5 5 6 4 2 7 9 5 6 6 8 4 6 10 4 8 7 5 6 4 6
3 4 3 4 4 5 5 5 5 4 4 6 3 4 3 1 2 4 9 8 6 4 3 4 5 6 8 7 8 7 7 7 6 3 5 1 10 8 7 6 5 3 7 7 8 8 7 9 8 8 9 4 7 3
5 6 5 3 3 5 5 5 7 7 3 4 5 2 2 4 4 4 4 3 8 8 7 6 6 7 7 8 8 7 6 7 5 6 4 6 7 6 7 8 8 8 7 6 8 10 14 11 7 9 6 5 6 9
5 5 4 4 3 3 4 3 2 2 4 6 4 4 4 4 6 4 3 2 3 6 4 3 2 3 4 3 5 6 7 5 3 4 7 3 4 2 2 4 5 7 9 8 12 12 13 9 9 5 6 6 6 6
5 4 5 5 4 4 3 2 3 5 3 4 2 5 3 3 2 3 4 4 3 3 3 1 3 4 5 4 2 4 7 5 5 4 5 4 7 7 9 5 7 13 11 12 9 5 11 8 9 5 7 7 3 2
5 4 5 8 7 4 4 5 4 3 1 2 3 3 4 2 1 2 6 6 6 5 5 5 5 6 6 6 5 5 8 4 3 6 7 8 9 7 6 8 10 8 8 8 11 5 5 10 7 9 6 3 3 2
5 6 4 4 6 5 5 5 6 9 6 6 6 4 9 5 6 6 5 4 3 4 7 8 6 6 6 5 7 7 5 5 6 5 5 9 5 6 9 11 11 8 9 11 10 7 5 4 4 4 4 6 11 16
2 3 3 4 3 4 5 5 6 8 8 8 7 7 6 6 6 5 5 5 5 6 7 7 7 7 6 6 6 5 7 5 5 2 8 11 9 6 8 6 5 8 8 9 10 8 8 5 5 4 8 10 13 10
4 5 2 3 2 2 5 7 7 7 8 9 10 9 8 7 8 2 3 3 4 8 9 8 8 7 5 2 6 8 10 5 4 3 8 7 4 6 12 14 13 8 10 1 7 9 8 6 6 5 4 11 11 11
6 5 4 5 3 1 3 3 4 4 4 2 3 5 3 3 5 2 1 5 5 4 5 5 6 4 7 7 7 3 4 7 7 6 6 5 11 1 4 4 6 8 10 7 6 9 12 11 8 7 10 12 13 11
Wind_Direction
255 263 261 238 240 255 273 293 315 326 332 337 342 345 348 349 350 345 294 339 337 309 299 326 336 334 338 3 29 350 133 238 275 235 277 295 314 317 298 2 342 314 282 273 270 267 238 15 64 346 88 101 80 59
248 258 258 236 233 244 264 282 305 320 327 331 335 340 344 346 348 340 280 355 334 270 291 320 295 286 291 320 329 319 360 357 26 320 274 268 289 300 321 281 267 295 289 316 338 48 67 11 49 46 94 91 77 83
239 250 255 234 224 234 250 273 296 312 322 326 329 333 336 339 343 347 299 311 308 255 267 247 243 218 240 268 313 304 357 6 33 34 332 340 327 334 311 309 326 252 177 229 296 123 124 96 92 78 87 89 79 65
241 245 253 234 220 229 241 262 288 306 316 321 324 326 327 329 330 329 300 316 289 292 276 259 115 193 226 274 298 310 329 291 317 6 311 302 284 283 270 278 307 4 104 193 250 141 134 139 111 92 83 72 70 71
245 246 249 229 214 225 237 256 282 300 310 316 318 320 321 322 321 299 261 260 264 299 326 319 304 186 199 226 222 245 262 263 258 251 240 260 261 273 269 276 270 248 261 245 307 119 182 151 123 127 120 103 75 44
248 248 244 215 200 215 235 260 280 297 306 310 313 315 317 320 323 288 210 180 348 318 278 270 243 161 339 200 230 233 249 244 248 261 251 262 94 297 265 257 260 230 251 104 112 146 128 110 113 114 115 113 73 58
244 243 237 190 193 207 231 262 284 297 303 305 306 308 308 310 300 279 350 5 350 309 251 253 241 163 179 220 215 218 224 253 242 244 236 265 165 176 261 258 285 311 120 102 122 115 115 130 129 96 104 98 170 83
237 241 189 179 187 205 234 268 288 297 299 301 301 302 300 298 270 264 204 221 254 273 273 264 260 146 182 207 209 211 205 219 202 253 265 230 121 215 249 259 252 133 113 166 128 164 170 116 117 123 116 59 23 103
237 179 164 167 186 205 252 288 301 299 299 299 300 297 279 212 235 74 97 136 214 293 301 235 250 222 149 220 218 170 255 226 210 218 233 240 218 232 204 236 158 152 174 172 171 119 105 134 127 127 157 116 11 78
145 141 148 162 179 201 292 306 306 305 300 297 277 212 220 53 124 140 164 194 202 215 222 256 269 244 188 179 216 190 183 250 231 208 234 240 242 251 166 180 162 153 177 187 161 155 147 140 157 124 81 75 76 57
114 124 136 152 153 275 321 321 323 322 286 220 230 44 65 136 230 219 222 214 184 217 209 222 240 260 157 212 211 174 210 215 232 233 198 220 228 216 183 141 148 157 193 181 151 130 98 150 142 154 143 120 133 115
99 100 136 142 113 326 332 333 331 295 10 323 291 270 255 226 223 226 216 212 227 215 222 203 205 226 213 228 233 193 219 263 243 87 236 243 214 115 138 150 160 166 172 112 110 108 106 108 109 111 130 133 96 90
92 84 98 124 265 306 319 324 331 325 298 260 232 241 201 223 333 224 217 200 213 211 158 194 186 198 85 212 229 166 222 237 279 220 233 247 133 135 139 147 154 159 121 122 119 120 119 123 125 136 127 111 121 109
79 111 231 256 275 292 300 305 320 326 299 248 211 265 228 205 216 216 237 226 228 191 155 200 169 202 159 197 225 174 227 264 227 239 242 148 156 150 144 148 150 143 136 139 143 144 138 140 130 130 124 111 66 48
19 332 298 277 281 331 315 278 303 275 276 256 250 239 216 252 250 215 233 247 147 213 145 194 167 200 188 176 228 203 190 224 226 245 93 122 142 147 151 154 150 144 148 153 153 151 157 146 153 145 130 148 123 106
324 292 114 63 21 339 325 201 175 257 251 252 249 261 264 250 240 231 260 264 214 240 190 177 185 217 188 172 222 189 212 223 239 108 111 136 146 153 153 147 134 135 144 156 156 156 156 164 179 164 172 216 191 143
306 80 73 36 354 323 252 233 204 241 251 248 230 246 282 301 292 334 225 227 224 231 201 194 199 198 196 224 208 217 224 244 125 132 139 141 156 148 150 124 126 135 154 152 156 158 151 178 161 165 193 221 263 147
306 108 50 15 0 306 163 233 246 227 233 256 261 252 291 288 299 302 347 15 260 228 284 317 319 240 204 229 234 222 217 102 84 106 120 137 140 146 144 140 136 147 145 146 152 163 163 187 175 208 208 215 199 197
358 332 340 355 2 308 213 206 237 250 230 273 273 262 261 300 306 306 310 300 227 347 310 220 238 232 212 317 249 235 140 132 129 113 123 138 153 158 164 149 158 163 163 166 170 179 176 196 214 247 211 197 204 103
276 279 266 191 188 251 245 223 189 255 277 276 261 266 265 296 320 301 278 282 259 226 238 227 217 271 146 23 4 87 52 100 122 134 131 148 166 167 169 165 176 166 167 167 182 209 166 184 208 231 52 62 351 123
237 81 161 180 191 241 285 284 217 260 298 270 220 198 289 14 288 287 290 282 244 242 236 252 67 355 355 54 7 71 53 3 142 154 168 155 173 180 174 192 186 170 180 173 188 185 237 208 210 182 161 175 222 143
147 144 187 186 243 189 246 227 274 309 253 250 316 164 187 214 241 267 256 250 256 241 236 250 86 165 150 235 144 268 146 186 93 126 116 119 23 197 178 188 186 173 169 175 185 181 183 226 227 179 166 164 226 118
125 148 220 207 231 208 254 207 225 224 248 163 141 198 226 223 224 272 243 228 218 250 270 274 135 69 62 117 133 128 126 254 191 169 153 128 217 182 113 166 221 179 178 182 120 335 174 191 156 258 154 168 176 156
115 205 231 211 193 245 225 182 214 238 191 239 202 204 209 196 214 264 254 228 220 218 239 232 206 193 155 344 219 193 197 252 257 216 222 188 66 60 107 97 348 353 134 144 92 335 337 229 165 178 232 214 214 262
220 212 211 236 224 226 203 184 207 210 220 181 206 233 167 113 247 229 239 208 224 244 247 208 224 255 258 225 218 240 220 222 240 150 201 62 129 126 127 153 166 205 156 145 175 158 275 287 207 211 205 189 204 67
238 203 216 202 256 218 211 197 196 205 166 203 217 238 233 199 232 258 281 201 191 202 210 191 194 215 233 251 261 241 196 205 241 254 208 196 231 242 202 178 162 164 160 157 161 194 207 224 270 212 162 178 201 211
249 212 188 179 231 283 250 221 186 140 198 206 179 213 194 216 219 192 206 59 99 70 66 61 35 325 302 243 213 235 268 268 188 209 198 196 240 211 196 204 190 144 142 154 231 204 204 220 253 181 214 237 231 204
259 204 178 207 201 202 254 290 239 212 234 127 240 188 235 239 296 356 112 160 111 140 120 231 224 233 244 259 262 295 288 272 238 228 254 240 257 241 243 150 109 160 165 205 200 231 214 205 198 194 214 221 217 197
237 249 180 195 193 222 229 197 240 216 206 269 290 218 164 155 91 245 218 161 192 211 212 231 236 224 228 195 196 223 240 252 273 257 238 239 234 204 155 119 149 167 206 130 107 200 250 169 163 218 220 190 109 170
229 225 217 215 213 226 232 230 205 188 201 232 184 229 255 197 191 213 224 224 192 219 233 240 240 232 239 221 205 216 219 232 201 114 309 251 220 203 143 151 196 201 178 174 167 128 94 159 132 200 224 65 40 358
312 280 236 237 247 260 289 284 281 276 223 216 222 240 260 256 259 230 227 231 237 247 253 248 247 257 248 233 249 190 210 190 286 200 183 251 260 204 134 75 299 209 168 171 171 159 159 210 218 186 90 94 115 207
218 223 264 284 262 224 249 264 270 273 262 239 243 241 238 237 244 280 287 245 298 244 213 238 255 248 249 286 69 78 75 3 352 238 245 251 189 173 155 187 213 164 140 164 175 150 159 202 86 77 188 122 223 238
215 222 221 270 281 329 258 221 243 262 230 314 328 1 348 326 281 289 50 286 291 275 263 277 243 201 117 100 85 44 173 141 131 164 113 83 92 60 257 189 160 148 144 177 176 168 172 187 173 218 196 196 229 210